Theta_e
312 315 315 315 315 314 313 311 312 312 312 311 311 312 312 311 311 310 310 310 310 309 310 310 309 309 309 309 309 308 308 309 309 309 310 310 310 310 310 310 309 309 309 309 307 307 307 307 307 308 307 306 305 306 306 306 306 306 306 305 304 303 303 302 301 301 301 300 300 298 298 298 297 297 296 296 295 295 296 295 295 295 295 295 295 295
310 313 315 316 314 313 313 312 311 311 311 311 312 312 312 311 310 310 310 310 309 309 310 311 310 309 309 309 309 309 309 309 309 310 311 311 311 311 311 310 310 310 310 310 309 307 306 307 308 307 307 306 305 305 306 305 306 306 305 304 304 303 302 301 301 301 301 301 301 300 299 299 298 297 297 296 296 296 296 295 295 295 295 295 295 296
312 312 313 312 312 313 314 313 310 311 311 312 312 312 312 311 311 311 311 311 310 310 312 313 311 309 309 310 309 310 310 309 310 310 311 311 311 311 311 311 311 311 311 311 311 309 306 306 307 306 306 306 306 306 306 306 305 305 305 304 303 302 302 302 301 301 301 301 301 301 300 299 298 298 298 297 296 296 296 295 295 295 295 295 295 295
316 316 313 310 310 311 312 312 311 311 311 312 312 312 313 311 312 313 312 314 313 310 312 312 310 309 310 310 309 310 309 310 310 310 311 311 311 311 311 312 311 312 311 310 311 310 307 306 305 305 305 305 305 305 305 305 305 304 304 304 303 303 302 302 301 301 301 301 300 300 300 299 298 297 297 297 296 296 296 295 295 295 295 295 295 295
315 318 314 311 310 310 311 312 312 312 312 313 313 312 312 312 312 312 312 314 313 313 314 312 311 313 314 313 314 312 309 310 310 309 310 310 310 311 310 311 311 311 311 310 311 310 310 308 305 303 304 304 304 304 305 305 305 305 304 304 303 302 302 301 301 301 300 300 299 299 298 298 297 297 296 296 296 296 295 296 296 295 295 295 295 295
313 315 313 312 313 312 311 311 313 315 312 312 313 312 311 311 311 311 313 312 313 318 316 312 314 317 317 317 320 319 314 314 312 310 311 311 310 310 310 311 311 311 311 311 311 310 310 307 303 303 303 303 303 304 305 305 305 305 304 304 303 302 302 301 301 300 300 299 299 298 298 297 296 296 296 296 296 296 296 296 296 296 297 296 296 296
312 314 312 313 315 315 313 312 314 314 311 313 317 317 312 311 312 313 313 312 317 321 314 313 318 317 316 317 320 320 317 319 317 313 313 311 310 310 311 311 311 311 311 311 312 310 309 308 306 304 304 303 304 305 305 305 304 304 304 304 303 302 302 301 300 300 300 299 299 298 298 298 297 296 296 297 297 296 296 296 296 297 297 297 297 296
314 313 311 312 313 315 314 312 314 312 312 316 317 320 318 315 315 313 312 312 317 318 313 315 318 317 316 316 318 317 316 320 318 315 314 311 310 311 311 311 312 312 311 313 312 309 310 311 308 304 304 304 305 305 305 303 303 304 303 303 303 302 301 301 300 300 300 299 299 298 298 298 298 298 297 297 297 297 296 296 296 296 296 296 297 297
314 314 315 314 312 315 314 313 315 312 313 317 314 315 317 316 315 314 314 316 315 316 316 315 315 318 319 315 316 314 313 318 318 315 314 311 312 312 312 313 313 312 310 312 311 311 314 310 304 302 303 304 305 305 303 303 303 303 303 303 302 302 301 300 300 300 300 299 299 298 298 298 298 298 298 297 296 296 296 296 296 296 296 296 296 296
312 313 315 315 314 315 313 314 318 315 314 315 312 315 316 317 318 316 317 318 317 318 317 316 315 318 320 318 318 315 314 320 319 315 313 312 313 313 313 314 315 313 310 310 308 311 313 305 300 302 303 304 305 304 303 302 302 302 302 302 301 301 300 300 300 299 299 299 299 298 298 298 298 297 297 297 296 296 295 295 295 295 295 295 296 296
310 308 310 314 315 314 314 314 313 314 315 312 314 319 318 319 320 319 320 318 317 319 318 319 318 317 320 320 320 318 317 320 318 316 317 317 318 318 317 317 317 314 311 312 310 311 310 302 299 302 302 303 304 303 302 301 301 302 301 301 300 300 300 299 299 299 299 299 298 298 298 298 298 297 297 296 296 295 295 295 294 294 295 295 295 295
309 308 311 315 316 314 315 313 308 310 312 312 318 321 317 320 320 319 322 319 317 321 319 318 316 315 319 318 318 320 318 317 317 318 322 322 323 327 328 325 318 311 309 312 313 315 315 309 306 303 301 303 303 302 302 301 301 301 301 300 300 299 299 299 299 299 299 298 298 298 298 298 298 297 297 296 296 295 295 295 294 294 294 294 294 294
315 313 312 313 313 312 313 314 312 311 311 311 317 318 314 320 320 318 321 319 319 321 316 313 313 314 317 315 316 318 317 318 316 316 320 322 324 329 329 325 319 311 308 308 311 316 317 316 317 310 301 301 302 302 301 300 301 301 300 300 299 299 298 298 298 298 298 298 298 298 298 297 297 297 297 297 296 295 295 295 294 294 293 293 293 293
320 318 311 309 312 313 312 314 314 314 313 312 315 317 316 318 319 319 322 320 320 321 314 310 314 316 317 318 319 317 314 317 317 315 317 318 321 322 318 318 317 312 310 309 312 317 316 317 320 310 300 299 301 301 300 300 300 300 300 299 298 298 298 298 298 297 298 298 298 298 297 297 297 297 297 297 296 296 295 295 294 294 294 293 294 294
321 322 316 314 316 315 311 311 316 319 315 311 314 318 318 321 324 323 326 324 322 324 315 309 315 321 320 320 321 318 316 319 321 320 315 312 314 316 316 317 316 315 315 311 311 315 316 319 313 303 299 301 301 301 300 300 300 300 300 299 299 298 298 298 297 297 297 297 297 297 297 297 297 297 297 297 297 296 295 295 295 295 294 294 295 294
318 322 321 316 314 313 311 312 318 322 317 312 316 318 315 320 325 321 323 324 320 322 317 313 318 322 317 316 317 317 315 317 320 317 311 312 314 315 317 317 316 321 321 314 314 313 313 313 303 296 301 302 301 301 300 300 300 301 301 300 299 299 298 298 297 297 297 296 296 296 296 297 296 296 297 296 296 296 296 295 295 295 295 295 295 294
318 322 320 313 311 311 311 312 314 318 317 314 315 317 314 317 320 317 321 322 318 320 320 319 321 320 316 317 318 319 316 314 317 316 312 317 319 316 318 318 320 325 322 316 316 312 311 312 303 298 302 302 301 302 301 301 301 301 301 300 299 299 298 298 297 297 296 296 296 296 296 296 296 296 296 296 296 296 295 295 295 295 295 294 294 294
320 322 319 314 313 313 309 310 312 313 314 315 317 316 314 315 317 317 320 321 320 321 321 320 322 320 320 321 320 323 322 318 321 321 319 320 320 319 323 327 325 321 316 314 315 313 311 312 306 299 300 301 301 302 302 302 301 300 300 299 299 298 298 297 297 296 296 296 295 296 296 296 296 296 296 296 295 295 295 295 294 295 295 294 294 294
320 319 319 317 315 315 312 312 314 311 309 313 316 314 314 317 319 318 318 320 320 321 322 321 321 320 320 320 318 321 321 320 321 323 323 320 319 323 328 326 320 315 314 314 313 310 307 305 301 297 297 299 300 300 300 300 299 299 299 298 297 297 297 297 297 296 297 296 296 295 295 295 296 296 295 295 295 295 294 294 294 294 294 294 294 294
319 318 320 317 313 315 316 315 319 318 312 310 312 313 313 315 317 318 319 320 321 321 323 323 322 321 320 319 318 317 317 319 320 320 321 318 318 324 326 320 316 313 312 310 306 303 302 300 298 296 296 297 297 298 298 297 297 298 298 298 297 296 296 296 296 296 296 296 296 295 295 295 295 295 295 295 295 295 294 294 294 294 294 294 294 293
318 318 318 317 315 317 317 318 321 322 318 314 314 314 313 313 316 317 316 318 319 319 321 323 323 323 323 321 317 314 314 316 317 316 318 318 318 321 319 314 311 308 304 302 300 299 298 297 296 295 295 295 295 296 296 296 297 297 297 298 297 296 295 295 295 295 295 295 295 295 295 295 295 295 295 295 294 295 294 294 294 294 293 293 293 293
319 320 320 320 321 321 321 320 319 319 320 318 315 316 315 313 316 317 316 318 318 317 319 321 320 323 328 325 318 315 314 315 316 315 316 318 316 315 312 307 303 301 298 297 296 296 296 295 294 294 294 294 294 294 295 295 296 296 297 297 296 296 296 295 295 295 295 295 295 295 295 295 295 295 295 295 294 294 294 294 294 293 293 293 293 292
318 319 320 320 320 320 320 319 317 317 318 317 315 317 318 315 314 316 318 318 318 317 317 319 319 322 326 325 318 316 316 314 315 314 313 315 312 308 305 300 298 297 296 295 295 295 295 294 293 293 293 293 293 293 294 294 295 295 296 296 296 296 296 296 296 295 295 295 295 295 295 295 295 295 295 295 294 294 294 294 294 293 293 293 292 292
315 317 319 319 320 320 319 319 316 313 315 317 316 315 316 315 315 316 317 317 318 318 317 320 321 320 323 324 318 317 317 315 315 313 312 310 304 300 299 297 296 296 295 295 294 294 293 293 293 292 292 292 293 293 293 294 294 294 295 295 295 295 295 296 296 296 295 295 295 295 295 295 295 294 294 294 294 294 294 294 294 294 293 293 292 292
315 317 319 319 320 320 319 318 316 313 314 317 317 316 314 315 315 315 316 316 316 316 317 319 319 319 324 326 320 317 318 317 314 310 305 301 298 298 298 296 295 295 294 294 294 293 293 293 293 292 291 292 292 292 293 293 293 294 294 294 294 294 295 295 295 295 295 295 295 295 295 295 294 294 294 294 294 294 294 295 294 293 293 292 292 291
316 317 318 319 320 319 318 317 315 316 316 315 315 317 316 316 316 315 316 316 316 317 317 318 318 316 320 323 319 316 314 311 308 302 297 296 296 296 295 295 295 294 294 294 293 293 293 292 293 292 291 291 292 291 292 292 293 293 293 293 293 294 294 294 294 293 293 293 294 294 294 294 294 294 294 294 294 294 294 294 294 293 293 292 292 291
314 315 317 317 317 317 317 316 315 317 317 315 315 317 316 316 315 315 316 317 317 317 316 317 317 315 316 317 314 309 305 302 300 296 294 294 293 293 293 293 294 293 293 293 293 293 293 292 292 292 291 291 291 291 291 291 292 292 292 292 292 293 293 293 293 293 292 292 292 293 293 293 294 294 294 294 294 294 294 293 293 293 293 292 292 291
311 313 315 315 315 316 315 314 314 314 314 315 315 315 315 315 314 314 315 315 316 317 317 316 315 316 316 313 305 299 298 298 296 294 292 292 292 292 292 292 292 293 292 293 292 292 292 292 292 291 290 290 290 290 291 291 291 291 291 291 291 292 292 292 292 292 292 292 292 292 292 292 293 293 294 294 294 293 293 293 293 292 292 292 291 291
309 309 312 313 312 311 310 309 310 311 311 312 313 314 314 314 314 314 314 314 314 315 316 315 314 316 315 307 298 295 295 295 294 293 291 291 291 291 291 291 292 292 292 292 292 292 292 292 292 291 290 290 290 290 290 290 291 290 291 291 291 291 291 291 291 291 291 291 291 291 291 292 292 292 293 293 293 293 292 292 292 292 292 291 291 291
308 309 309 308 307 306 306 307 308 308 309 309 310 311 312 312 312 312 312 313 313 313 314 313 314 314 307 299 295 295 294 293 294 293 291 291 291 291 291 292 291 292 292 292 292 292 292 292 292 291 290 290 290 290 290 290 290 290 290 290 290 290 291 291 290 290 290 290 291 291 291 291 291 291 292 292 292 292 292 292 292 291 291 291 291 290
307 307 306 305 304 304 304 304 305 306 307 307 308 309 309 309 309 308 308 309 309 310 309 310 314 312 300 293 294 294 293 293 293 292 291 291 291 291 291 291 291 292 292 292 292 292 292 291 291 291 290 290 290 290 290 290 290 290 290 290 290 290 290 290 290 290 290 290 290 290 290 290 290 290 290 291 291 292 291 291 291 291 291 291 290 290
304 304 303 303 302 302 302 302 302 303 304 304 304 304 303 304 304 303 304 305 305 307 308 310 312 307 296 293 293 293 292 293 292 292 292 291 291 291 291 291 291 291 292 292 292 292 291 291 291 291 290 290 290 290 290 290 290 290 290 290 290 290 290 289 289 289 290 290 289 290 290 290 290 289 289 290 290 291 291 291 291 290 290 290 290 289
301 301 301 301 301 301 301 301 300 300 300 299 300 301 301 301 301 301 303 303 302 303 306 307 304 298 294 293 293 292 292 292 291 292 292 291 291 291 291 291 291 291 291 292 291 291 291 291 290 290 289 289 289 290 290 290 289 289 289 289 290 290 289 289 289 289 289 289 289 289 289 289 289 289 289 289 289 290 290 290 290 290 290 289 289 289
299 300 299 300 301 300 299 299 298 298 297 296 298 302 303 302 303 303 301 298 298 299 299 298 296 293 293 293 293 292 292 292 292 292 292 292 292 291 291 291 291 291 292 291 291 291 290 290 290 290 289 289 289 289 289 289 289 289 289 289 289 289 289 289 289 289 289 289 288 288 288 288 288 289 289 288 288 288 289 290 289 289 289 289 289 288
297 298 298 298 299 298 298 298 297 296 297 298 299 299 299 300 300 298 295 293 294 296 295 294 294 293 292 292 292 292 292 292 292 293 292 293 293 292 291 291 291 291 292 291 291 291 290 290 289 289 289 289 289 289 289 288 288 288 288 288 289 289 288 288 288 289 289 289 288 288 288 288 288 288 288 288 288 288 288 289 289 289 289 289 288 288
297 296 296 297 298 298 298 298 297 296 298 300 299 297 296 297 296 296 295 293 290 292 294 293 294 293 292 292 292 292 292 292 292 292 293 293 294 293 292 292 292 292 292 291 291 290 289 289 289 289 289 288 288 288 288 288 288 288 287 288 288 288 288 288 288 288 288 288 288 288 287 287 287 287 288 288 288 287 287 288 288 288 288 288 288 287
297 297 297 297 297 297 297 297 298 297 299 301 300 297 296 296 296 296 297 294 289 289 292 294 294 293 292 292 292 292 293 292 291 291 293 293 294 294 293 293 292 292 292 291 290 289 289 288 289 289 288 288 288 288 288 287 287 287 287 287 287 287 287 287 287 287 288 288 288 287 287 287 287 287 287 287 287 287 287 287 287 287 288 287 287 287
297 297 298 297 297 299 299 299 299 299 300 302 299 296 295 295 296 295 295 294 290 287 290 294 295 294 292 292 293 292 293 292 289 290 292 293 293 293 293 293 292 291 290 290 289 288 288 288 288 288 288 287 287 287 287 287 286 286 287 287 286 286 286 286 286 287 287 287 287 287 287 287 286 286 287 287 287 287 286 286 286 286 286 287 286 286
296 297 298 298 298 300 300 300 299 298 300 300 298 296 295 295 295 295 295 295 291 287 290 294 295 294 293 293 292 292 292 291 289 289 292 292 291 291 292 292 291 290 289 289 288 287 287 287 287 287 287 287 287 287 286 286 286 286 286 286 285 285 285 286 286 286 286 286 286 286 286 286 286 286 286 286 287 287 286 286 285 285 285 285 285 285
296 296 297 298 298 299 299 299 298 297 298 299 297 296 296 294 294 295 296 296 292 289 293 295 295 294 294 292 292 292 292 291 290 290 290 291 290 291 291 291 291 290 289 288 287 287 287 287 287 287 286 286 286 286 286 285 285 285 285 285 284 284 285 285 285 285 285 285 285 285 286 286 286 286 286 286 287 287 287 286 285 285 284 284 284 284
295 295 295 295 296 296 296 296 295 296 298 299 296 296 295 293 292 293 294 293 290 290 293 295 294 294 294 293 292 292 292 291 291 290 290 291 291 291 290 290 290 289 288 287 286 286 286 286 286 286 286 286 286 285 285 284 284 284 284 284 283 283 284 284 284 283 283 283 284 284 285 285 286 286 286 286 286 286 286 286 285 284 284 283 283 283
292 292 292 294 294 293 293 294 293 294 296 296 295 294 292 291 293 295 294 290 289 289 292 293 293 293 293 292 292 292 291 291 291 291 291 292 292 291 290 289 288 287 286 285 285 285 285 285 284 284 284 285 285 284 283 283 283 283 282 282 282 283 283 283 282 281 281 282 282 283 284 284 285 285 285 285 285 286 286 286 285 284 283 282 282 281
293 292 292 294 294 292 292 293 293 293 293 292 293 293 292 293 295 295 292 290 289 290 291 291 291 291 291 291 291 291 291 291 291 291 291 291 291 290 289 287 285 284 283 283 283 284 284 283 283 283 283 283 283 282 282 282 282 281 281 281 281 281 282 281 280 279 279 280 281 282 282 282 283 283 284 284 284 285 285 285 285 284 283 282 281 280
293 293 292 292 293 292 292 292 294 297 295 292 291 292 293 294 293 292 290 289 289 290 290 289 289 289 289 289 290 291 291 290 290 290 290 289 289 288 287 285 283 282 282 282 282 282 282 282 281 281 282 281 281 280 280 280 280 280 280 280 280 280 280 279 278 277 278 279 279 279 280 280 281 282 283 283 283 284 284 284 284 283 282 281 280 279
293 293 292 292 292 292 292 292 293 294 294 291 290 291 291 291 290 290 289 289 289 289 289 288 287 287 288 288 289 290 290 290 290 289 288 287 287 286 284 283 282 281 281 281 281 281 281 280 280 280 279 279 279 278 278 278 278 278 278 278 278 278 277 276 276 276 277 277 277 277 277 278 279 280 281 282 283 283 283 283 283 282 281 280 279 279
291 291 291 290 290 291 291 291 290 290 290 290 290 290 290 289 289 289 288 288 288 288 288 287 287 287 287 288 288 289 289 289 288 287 285 284 283 282 281 281 280 280 280 280 280 279 279 278 278 278 277 277 277 277 277 277 277 276 276 276 276 275 274 274 274 274 274 274 274 275 275 276 277 277 278 280 281 282 282 282 282 282 281 280 279 278
290 290 289 289 290 290 290 289 290 290 290 289 289 289 289 289 288 288 288 287 287 287 287 286 286 286 286 286 286 286 285 285 284 282 281 281 280 280 280 280 279 279 278 278 278 278 277 277 276 276 276 276 276 276 275 275 275 275 275 274 273 273 272 272 272 272 272 272 272 272 273 274 275 276 277 278 280 281 281 281 281 281 280 280 279 278
290 290 290 290 289 289 289 289 289 289 289 289 289 289 288 288 288 288 287 287 286 286 285 284 283 283 283 283 282 281 281 280 280 279 279 279 278 278 279 278 278 278 277 277 277 276 275 275 275 275 274 274 274 274 274 273 273 273 273 272 271 271 270 269 269 269 270 270 270 270 271 272 273 274 275 277 278 280 281 281 281 280 280 280 280 279
290 290 290 290 289 289 289 289 289 289 289 289 289 289 288 288 287 287 285 284 283 282 281 280 279 279 280 279 278 278 278 278 277 277 277 277 277 277 277 277 276 276 276 275 275 274 274 274 273 273 273 273 273 273 272 272 271 271 270 270 269 268 268 267 267 267 267 268 268 269 270 271 272 273 275 276 277 279 280 280 280 280 280 281 281 281
290 290 290 290 290 289 289 289 289 289 289 289 289 288 286 284 283 283 281 280 278 278 277 277 277 277 277 277 276 276 276 276 276 276 276 276 276 276 275 275 274 274 274 274 273 273 273 273 272 272 271 271 271 271 270 270 269 269 268 268 267 267 266 266 266 266 266 267 267 268 270 271 272 273 274 275 276 277 278 279 280 280 280 281 281 281
289 290 289 289 289 289 289 289 289 289 289 289 288 284 279 277 277 278 277 276 275 275 275 275 275 275 275 275 275 274 274 274 274 274 274 274 274 274 273 273 273 272 272 272 272 272 271 271 271 270 270 270 269 269 268 268 267 267 266 266 265 265 265 265 265 265 265 266 267 268 268 269 270 271 271 272 273 274 276 277 278 279 280 281 281 281
Wind_Speed
3 3 4 5 10 14 14 13 15 15 8 5 4 5 7 8 9 10 13 10 0 3 8 11 17 16 14 16 15 16 13 11 17 20 17 15 14 14 14 15 15 16 17 16 21 25 21 19 21 22 25 27 29 32 34 35 38 40 41 41 42 43 42 42 41 42 42 41 40 38 40 44 44 44 44 46 48 49 49 49 48 48 46 46 45 43
2 6 7 12 16 12 9 10 12 10 5 5 5 7 7 7 12 11 12 13 1 1 7 8 17 18 13 16 16 14 14 12 16 20 21 20 16 14 14 18 18 15 13 11 15 18 16 17 19 21 23 24 27 31 33 36 38 40 40 41 41 40 41 43 44 44 45 46 46 45 46 48 46 46 48 49 51 51 50 49 49 48 47 46 46 44
3 6 11 17 11 0 1 5 6 6 6 7 5 6 7 4 9 10 9 11 3 1 7 7 15 16 11 16 18 16 17 15 15 18 21 21 17 16 17 17 15 13 12 10 12 13 12 15 18 19 22 25 27 29 32 35 37 37 39 41 40 39 41 44 45 45 46 47 46 43 42 41 40 42 46 46 47 49 49 48 47 47 47 46 46 45
5 7 13 15 6 2 3 3 6 3 4 6 5 5 8 3 5 8 5 6 4 3 7 9 15 14 10 15 17 18 17 13 14 17 19 18 17 21 20 14 10 12 14 13 12 11 9 11 14 16 19 22 25 27 29 33 35 36 39 41 40 40 43 44 45 46 44 41 40 37 33 33 33 34 37 38 39 43 44 45 46 46 47 46 46 46
9 7 7 8 7 8 8 2 6 4 5 7 8 7 9 9 10 10 5 7 7 5 4 7 14 12 8 11 11 10 8 9 13 14 16 18 20 20 16 11 9 11 14 14 13 13 10 8 10 12 15 18 22 26 30 32 35 36 38 39 40 40 41 42 43 43 40 36 35 33 28 26 28 27 29 33 35 38 40 44 47 48 47 47 47 47
10 6 3 4 6 8 8 6 6 7 8 8 7 11 15 14 12 11 8 7 6 5 4 5 9 10 4 8 8 6 2 6 8 10 15 19 19 14 9 10 10 10 11 10 12 13 9 7 9 11 13 16 22 27 30 32 34 35 36 37 38 39 39 40 41 40 39 37 37 36 32 29 29 27 31 38 39 39 43 46 47 48 48 48 48 47
6 5 5 6 6 7 6 6 7 10 8 8 5 11 15 12 9 11 8 4 2 5 3 4 1 10 5 4 9 8 5 9 9 9 15 16 14 10 8 9 10 9 8 7 9 8 7 7 8 10 14 18 23 27 28 29 31 33 33 35 37 38 39 39 39 40 40 40 39 41 40 37 35 34 36 41 41 42 45 44 44 46 46 47 47 47
3 3 3 5 5 6 5 6 7 11 6 7 5 7 9 8 9 7 5 4 4 3 3 2 5 7 12 5 5 6 6 8 11 12 15 14 11 11 10 9 10 10 8 7 7 5 6 7 7 10 15 18 22 24 23 25 28 30 32 33 35 37 38 38 39 41 43 43 42 42 41 38 39 39 37 37 38 40 42 41 41 43 44 45 46 46
4 4 5 6 5 4 7 6 6 11 7 6 3 5 6 6 6 5 5 5 2 4 3 3 5 2 13 6 3 2 4 7 12 15 14 12 10 10 10 10 11 9 5 4 6 7 6 8 9 12 16 16 19 20 20 22 24 26 29 31 33 36 37 38 40 42 45 45 44 43 41 39 40 39 34 33 34 36 38 39 40 41 42 43 44 46
1 4 6 8 5 6 8 4 7 12 8 4 5 5 4 4 3 5 4 3 3 3 5 5 6 2 12 8 4 4 2 7 11 11 9 8 8 10 10 9 11 8 5 4 3 5 7 9 11 13 14 14 15 16 17 18 19 21 24 27 31 34 36 37 40 42 44 45 43 43 43 41 39 35 31 29 31 34 35 37 38 40 42 43 45 46
2 0 2 5 4 6 4 2 3 8 5 3 5 5 5 4 4 4 1 4 2 6 5 10 12 6 7 6 4 3 4 6 5 5 7 7 7 10 9 8 9 6 5 5 4 5 7 10 12 11 11 11 12 12 13 14 16 18 21 24 28 31 33 35 38 41 43 44 43 44 44 43 39 35 32 30 31 34 34 35 37 39 40 42 44 46
3 1 2 3 2 4 5 3 2 2 4 4 3 3 3 4 4 4 4 3 2 7 5 9 12 9 8 5 1 4 6 4 4 4 8 9 7 9 7 6 7 2 3 4 5 6 8 10 10 10 10 11 11 11 11 11 13 16 19 22 25 28 30 32 35 39 41 42 44 44 43 42 40 36 36 36 35 36 38 38 38 38 38 40 41 43
3 5 5 2 2 5 5 2 3 4 3 4 3 3 1 4 3 2 3 1 4 7 4 5 7 6 12 7 3 9 11 8 8 6 8 9 8 9 7 7 8 4 4 4 3 6 7 8 8 8 9 9 9 11 10 10 11 14 17 21 24 27 29 31 34 37 40 42 45 45 42 41 40 38 39 39 38 38 40 40 39 39 40 40 41 44
4 4 3 2 3 4 8 5 3 2 4 6 5 5 5 2 2 3 3 2 5 6 3 3 5 4 9 6 8 14 13 9 6 7 9 9 8 8 7 8 9 8 7 5 4 6 6 6 7 7 9 10 9 10 10 9 9 12 16 20 24 26 27 29 32 35 39 42 44 44 42 41 39 39 40 41 39 39 40 40 40 42 42 43 45 48
4 6 4 6 3 5 10 11 8 4 5 6 5 5 5 5 4 4 4 5 5 3 2 1 3 4 4 2 6 10 8 6 4 6 7 6 7 6 7 8 8 7 7 5 4 5 6 6 7 8 11 13 11 9 9 10 10 12 16 20 24 27 28 31 33 35 39 41 41 39 40 40 40 41 41 40 40 40 40 41 41 42 43 45 46 47
3 8 6 3 1 8 10 7 5 6 2 4 3 3 3 5 5 4 5 4 2 2 2 3 4 5 4 6 8 7 8 8 7 5 5 6 7 5 6 8 7 6 6 5 5 6 6 7 7 9 11 13 11 9 9 10 11 13 17 21 25 28 30 32 34 36 37 37 36 37 38 39 39 39 39 40 40 40 41 41 42 42 43 44 44 44
3 7 3 1 1 5 5 1 1 3 2 2 3 3 5 3 5 3 5 1 1 4 6 5 7 7 6 10 7 2 3 5 6 6 5 7 7 6 7 7 6 6 6 6 6 6 7 6 6 6 8 11 12 11 12 13 14 15 18 21 25 27 29 31 33 34 33 32 32 35 36 36 37 37 39 40 40 40 39 39 40 41 41 42 42 42
5 8 4 4 3 4 1 1 2 1 3 5 3 4 2 1 2 2 2 1 1 7 7 6 13 11 7 9 4 7 6 6 6 7 5 6 6 5 6 6 5 6 6 7 7 7 7 4 3 7 12 16 18 18 19 20 19 18 19 22 24 25 28 29 30 31 31 31 32 33 34 35 36 37 38 37 36 36 37 38 40 41 41 42 42 41
3 7 6 2 2 3 2 1 2 3 3 5 3 1 2 2 3 1 2 2 4 8 5 7 14 11 8 11 7 7 9 8 7 7 6 7 6 5 5 6 6 7 7 7 7 7 9 9 11 16 21 25 25 22 20 19 18 16 18 21 22 24 25 25 26 29 31 33 34 33 33 35 37 38 38 37 35 34 35 38 39 40 42 42 41 42
1 3 5 1 2 2 3 2 2 3 2 2 1 3 1 2 2 1 2 2 4 8 7 7 10 8 8 10 6 2 5 7 7 6 6 7 6 5 5 6 7 8 8 9 9 10 12 13 16 22 25 26 26 25 24 22 19 17 17 18 20 23 23 22 23 25 28 31 33 34 34 34 36 36 36 35 34 35 37 38 38 39 40 40 41 42
2 1 4 2 2 4 3 2 5 4 3 1 1 3 3 2 1 2 2 1 2 6 7 7 9 7 5 6 3 2 2 5 5 4 6 7 7 7 5 4 7 9 12 13 13 14 16 16 20 25 28 28 29 31 33 32 30 27 24 21 20 21 22 21 22 23 25 27 28 31 33 34 35 35 35 35 35 36 37 37 38 39 38 39 41 42
1 2 2 3 4 6 7 6 7 7 6 5 5 5 6 5 2 4 5 4 3 5 6 7 9 7 4 7 7 1 1 3 3 3 6 8 10 12 9 9 12 13 14 14 13 14 14 13 16 23 27 30 31 32 34 34 34 33 29 26 21 19 20 22 23 24 26 27 27 30 32 33 34 34 34 35 36 38 38 38 38 39 38 40 41 41
1 2 2 5 7 9 11 7 5 5 4 3 3 3 3 4 4 6 8 5 4 5 5 7 10 7 5 9 12 10 9 7 3 3 7 9 9 11 13 14 14 13 11 12 12 11 10 11 15 21 25 28 30 31 33 32 32 31 30 28 24 22 22 22 23 24 25 26 28 31 32 33 34 34 34 36 37 39 40 39 39 39 40 42 41 40
1 2 2 5 5 7 10 5 2 2 3 1 3 4 4 5 6 8 6 3 4 6 6 8 9 5 3 8 10 10 11 9 3 3 2 6 9 12 12 12 12 10 11 11 11 10 9 12 16 18 20 23 26 28 30 31 31 31 32 32 29 27 26 25 24 24 24 25 27 30 31 33 34 34 35 36 38 40 41 41 41 41 42 42 40 40
1 1 1 2 4 5 7 5 1 1 1 2 5 6 7 8 9 8 4 2 4 8 10 11 10 5 2 5 6 7 9 10 9 7 10 10 9 8 9 10 10 11 12 12 12 12 12 13 14 13 16 19 22 25 28 29 31 31 32 33 33 32 32 31 28 26 24 24 26 28 30 33 33 33 35 36 39 41 42 42 43 42 42 41 40 40
2 2 3 4 6 7 8 8 4 1 2 2 3 5 7 9 11 9 5 6 7 9 11 11 10 8 5 5 7 8 9 11 12 13 12 9 8 8 8 8 9 9 11 12 12 12 11 11 11 12 16 19 21 23 25 27 29 30 31 32 34 35 35 35 34 32 29 26 25 26 28 30 32 33 36 37 39 41 41 42 42 41 41 41 41 41
1 2 5 8 10 10 11 12 9 6 4 5 6 7 7 7 9 8 6 8 10 10 11 12 12 13 12 9 7 9 11 12 11 11 10 9 9 9 7 7 7 7 8 8 9 10 10 11 11 12 15 19 21 23 24 25 26 28 29 31 34 34 34 35 36 36 35 33 29 27 26 28 30 33 35 37 39 40 40 40 40 40 41 41 41 42
1 3 6 10 12 11 12 13 12 12 11 10 10 10 9 9 9 9 10 12 12 11 11 11 12 16 13 6 8 11 11 10 10 10 10 9 8 7 7 8 9 9 9 9 9 10 10 10 10 11 14 18 21 23 24 25 26 27 27 29 32 33 33 34 33 33 33 33 32 31 31 30 31 32 34 36 37 38 38 37 38 40 40 40 41 43
1 4 5 7 9 7 9 12 11 11 11 9 8 9 10 11 12 13 15 14 12 11 11 11 14 18 12 4 7 8 8 8 8 7 7 7 8 8 9 10 11 11 11 11 11 10 9 9 9 9 12 17 20 22 24 25 27 28 29 30 31 32 32 32 31 30 30 29 30 32 33 33 32 32 32 33 34 35 36 37 38 39 39 40 42 43
2 3 2 4 7 8 10 11 10 11 12 11 11 10 9 11 15 16 15 13 12 15 16 16 18 16 6 5 4 4 3 3 3 4 6 8 9 9 10 11 11 10 10 11 12 11 10 10 10 10 12 16 19 20 21 22 25 27 28 31 33 33 33 32 31 30 30 31 32 33 34 34 33 32 32 32 33 34 35 36 37 37 38 40 41 41
3 3 6 7 7 10 12 12 12 12 12 13 13 11 12 16 17 17 15 13 15 17 16 17 17 10 2 5 3 3 2 2 3 3 4 6 8 9 10 10 10 9 9 9 10 10 10 10 10 11 12 16 19 21 21 22 23 25 27 30 32 34 35 34 32 31 30 31 34 35 36 36 35 33 31 31 32 33 34 35 35 36 37 38 38 38
1 2 6 7 6 9 14 15 14 12 11 12 14 15 19 19 16 15 14 11 11 11 10 11 11 4 2 2 2 3 4 5 5 4 2 3 5 7 8 9 9 9 9 8 8 9 10 11 11 11 13 16 20 22 23 24 24 24 26 28 30 32 33 32 31 30 28 29 32 34 35 37 36 35 33 31 31 32 33 33 33 33 34 35 36 36
3 3 4 5 5 8 14 14 10 8 9 10 11 13 16 16 14 15 11 4 2 3 4 5 3 0 1 2 2 4 5 5 6 5 2 2 3 5 7 7 8 8 8 8 9 9 10 10 11 13 16 18 20 21 23 24 23 24 26 27 28 29 29 30 31 29 27 28 30 32 33 35 35 35 34 32 31 30 30 30 31 31 33 34 34 34
6 6 5 5 5 8 13 9 6 6 10 9 5 3 5 6 7 7 2 4 3 1 2 1 1 1 2 3 2 4 5 4 5 5 3 2 2 5 7 7 7 8 7 7 8 8 9 9 11 15 18 20 22 22 23 23 22 23 26 27 27 27 26 28 29 28 27 29 30 31 33 34 34 34 35 34 31 29 28 28 30 31 32 32 32 32
8 7 4 3 4 6 6 5 5 8 7 3 2 1 2 3 5 5 3 2 1 2 4 3 3 2 2 4 4 5 6 5 5 7 6 5 3 3 6 6 6 7 7 7 7 8 8 10 13 15 18 20 22 23 24 24 24 25 27 27 27 27 27 27 27 26 26 28 30 31 33 34 34 34 34 34 32 28 26 27 28 30 30 30 31 32
8 6 3 2 4 3 1 3 7 6 1 0 2 1 3 4 6 6 2 1 2 2 2 3 4 5 5 6 6 6 6 5 5 6 7 7 5 3 4 6 6 6 6 6 7 8 11 13 14 16 17 20 21 21 23 24 24 26 27 26 27 28 28 28 28 28 28 30 31 32 33 33 34 34 34 34 33 30 28 27 27 28 29 29 29 31
8 6 3 3 5 4 3 6 6 6 6 5 3 0 1 2 3 1 1 3 4 3 3 4 5 6 6 6 7 6 6 5 5 4 6 7 6 6 6 7 7 7 8 9 11 13 15 17 18 17 18 20 20 20 22 23 24 25 26 25 25 27 28 28 27 28 30 32 33 33 34 33 33 33 33 32 32 31 31 28 27 27 27 27 28 29
9 7 5 4 5 5 4 5 5 6 7 3 3 4 3 3 4 2 1 2 3 1 4 6 6 7 7 6 7 6 3 4 6 5 4 7 7 6 6 7 8 9 11 12 13 15 17 19 19 19 19 20 20 21 22 23 24 24 23 23 23 24 25 25 25 27 29 31 33 33 34 34 33 33 33 32 31 30 30 29 28 27 25 26 28 29
6 6 6 5 5 4 4 5 4 6 5 2 5 6 4 3 4 2 1 2 2 2 4 7 7 7 7 7 7 4 1 3 6 5 5 7 7 6 6 7 8 11 14 15 15 16 18 20 19 19 20 19 20 22 22 22 23 22 21 22 22 22 22 23 24 26 28 31 33 33 33 34 34 33 33 32 32 31 30 29 28 26 25 25 28 29
2 2 4 5 5 5 6 6 4 4 4 3 5 6 4 3 4 1 6 4 3 3 6 8 8 8 7 7 7 4 4 6 6 6 6 7 7 6 7 8 8 10 12 15 16 18 20 21 19 17 18 19 20 22 22 21 22 21 20 22 22 21 21 23 24 27 29 31 32 32 33 33 33 33 33 34 34 32 30 28 27 26 24 25 27 27
2 1 2 4 6 7 9 7 5 4 5 5 6 6 4 2 3 3 8 4 1 4 5 8 9 9 7 7 6 5 7 9 8 8 8 7 6 6 7 11 13 12 13 16 18 19 19 18 17 18 19 20 21 21 21 21 20 21 21 21 21 22 23 24 26 28 30 32 32 32 32 32 31 33 34 35 35 34 32 29 26 25 24 25 25 25
1 1 2 3 4 4 5 5 5 5 4 3 4 4 2 1 2 6 6 2 3 7 5 6 8 8 7 7 7 7 10 11 10 9 9 8 8 7 7 9 11 12 14 16 18 19 17 16 18 19 21 22 21 21 22 21 21 22 21 20 22 24 25 26 27 29 31 32 32 32 32 32 32 33 34 35 34 34 33 31 26 24 23 23 24 24
4 2 3 3 3 2 2 4 5 5 2 3 2 2 1 3 5 5 4 5 6 6 6 5 6 7 7 8 9 10 11 11 11 11 10 9 9 8 8 8 8 10 13 15 18 19 17 15 17 20 22 23 23 23 23 22 21 22 22 23 25 26 25 26 29 31 33 33 32 32 33 33 34 33 33 34 33 32 32 31 27 24 22 22 22 23
5 4 4 4 3 2 3 5 5 4 3 3 3 2 4 5 5 5 7 9 8 6 5 5 6 7 8 8 9 11 11 11 11 10 9 9 8 7 8 8 8 11 14 16 20 21 18 15 17 20 23 24 25 25 24 22 21 23 24 26 27 26 25 28 31 32 33 33 32 33 34 34 34 33 33 34 34 32 31 30 27 24 23 22 22 21
4 4 4 4 4 4 4 6 6 3 2 3 4 5 8 10 10 9 7 7 7 6 4 4 7 9 9 9 9 10 10 10 10 9 8 7 7 8 8 9 11 14 16 19 22 23 19 17 19 21 24 27 28 27 25 22 20 23 27 29 26 24 26 30 32 31 32 33 34 35 35 35 34 34 34 34 32 31 31 29 26 24 24 22 22 21
5 4 2 2 6 6 6 9 11 7 6 9 10 10 11 11 11 10 7 5 6 6 6 6 8 9 9 8 8 7 8 8 8 7 7 6 8 9 10 11 14 16 17 19 21 22 20 19 20 22 24 29 31 28 25 23 22 24 29 30 27 25 28 31 31 31 32 33 35 36 35 35 36 35 34 33 32 31 32 30 27 25 24 22 22 21
8 7 4 5 8 8 8 11 11 9 10 12 11 10 11 11 9 7 6 7 7 7 7 7 6 6 6 5 4 5 6 7 7 8 8 7 9 11 11 11 14 16 19 20 22 22 20 19 20 22 23 28 32 29 24 24 26 27 30 30 28 27 29 30 31 32 34 35 35 35 35 34 34 34 33 32 31 30 31 30 28 26 24 23 22 21
5 3 4 7 10 10 12 14 12 10 11 11 9 9 11 12 11 8 6 6 6 6 6 5 4 4 4 4 4 4 7 8 7 8 8 8 10 11 11 12 14 17 21 24 24 22 20 19 21 22 22 26 31 30 27 28 30 31 31 31 29 28 28 30 31 32 35 37 36 34 33 33 33 33 32 30 30 29 29 29 28 27 27 27 26 24
3 2 3 5 7 10 13 14 12 11 10 10 11 10 8 7 8 6 4 4 5 6 7 7 5 4 4 4 4 4 7 9 9 8 9 10 12 12 12 14 17 20 24 26 27 24 23 23 23 22 24 28 32 33 32 33 35 35 34 32 31 30 30 31 33 34 36 37 35 33 32 30 30 30 30 30 30 30 30 31 30 29 31 33 32 31
4 7 7 5 6 9 11 11 9 8 8 9 9 6 3 4 5 5 6 6 6 6 7 8 8 7 5 4 4 5 8 10 11 10 10 11 12 14 15 17 19 23 26 27 28 27 27 27 26 25 27 32 35 34 35 37 39 39 36 32 31 31 32 33 34 34 35 34 32 31 30 28 28 28 28 28 29 29 30 32 33 33 34 35 35 35
7 9 8 7 8 11 13 13 10 7 8 8 5 3 5 5 6 5 4 5 5 5 5 7 8 10 10 8 7 6 7 10 11 11 11 12 15 19 21 21 20 22 25 27 26 25 26 29 29 28 29 33 35 36 37 40 43 43 39 35 32 32 33 33 32 31 32 32 31 30 28 27 28 28 28 28 29 29 29 30 31 32 34 35 34 33
Wind_Direction
133 164 178 188 210 225 221 197 210 228 237 257 258 256 257 264 267 261 268 270 154 286 255 245 264 267 266 268 266 269 272 273 279 280 275 268 263 262 263 263 258 252 254 261 267 270 270 264 257 253 250 243 237 234 231 227 224 222 220 218 217 215 212 209 205 203 202 202 202 203 208 212 214 214 215 217 218 220 221 222 222 221 221 222 222 222
130 193 209 213 217 222 215 202 218 238 271 275 253 266 265 252 265 267 273 278 280 259 257 242 267 270 264 270 267 266 268 258 258 268 273 271 267 266 265 263 261 258 264 273 275 273 269 263 255 248 244 236 231 230 227 225 224 222 219 218 217 213 209 208 206 203 203 204 203 204 208 211 211 211 212 215 217 218 220 221 220 220 220 221 221 221
216 220 226 225 225 354 103 175 203 226 239 251 249 275 274 256 277 274 264 283 318 215 273 274 272 271 260 263 263 256 254 249 245 251 262 270 272 270 263 260 266 275 281 277 272 274 268 260 254 244 237 233 232 231 228 226 224 220 218 218 216 212 209 209 207 206 206 207 207 207 209 210 209 212 213 214 216 217 218 219 219 220 220 220 221 221
221 234 233 232 231 270 260 124 123 200 235 231 224 250 264 254 276 269 261 316 336 239 276 295 283 274 249 252 258 253 250 250 250 248 255 265 263 260 261 265 279 282 282 280 278 281 274 263 256 244 238 235 233 232 229 225 222 219 219 217 214 213 212 210 208 208 208 207 206 208 211 211 210 213 215 214 217 217 217 218 219 220 220 220 221 221
234 237 225 218 205 212 239 186 142 216 255 224 210 222 251 250 246 256 287 341 326 285 310 321 298 284 221 224 249 256 252 245 249 252 257 260 256 256 268 279 273 264 270 279 281 282 281 276 272 261 252 245 235 232 231 227 223 220 220 218 215 214 212 210 209 207 205 203 201 202 205 207 207 211 211 211 215 215 215 217 218 219 219 220 220 221
247 238 168 163 193 195 214 231 196 204 247 251 216 211 235 249 254 265 293 341 339 307 342 14 319 297 193 179 237 262 260 244 245 244 247 253 257 262 276 276 265 256 258 266 272 281 297 316 310 290 270 253 242 239 238 233 228 224 222 219 215 213 212 211 208 205 201 200 198 196 195 194 196 201 205 209 211 210 213 216 217 218 218 219 219 219
249 235 197 189 195 178 191 243 218 193 236 274 230 207 225 242 255 263 277 315 291 256 290 69 354 289 281 181 229 236 213 242 246 238 245 252 263 273 272 267 270 271 268 265 269 295 328 326 314 291 272 257 252 252 247 238 232 227 223 220 216 213 212 210 207 203 200 199 199 198 199 198 197 201 208 211 211 211 213 215 216 217 217 217 217 218
201 216 225 204 183 159 182 245 218 178 206 270 229 191 203 219 232 234 229 226 236 270 306 133 144 277 287 257 217 208 190 240 252 244 250 253 259 270 270 272 276 275 283 286 292 338 336 297 285 281 278 273 270 268 257 243 236 230 224 220 216 213 212 209 206 203 201 201 201 201 203 204 206 208 211 212 210 212 213 212 214 216 216 216 217 218
148 190 209 178 151 171 205 227 177 154 192 253 193 151 167 190 202 170 168 203 250 343 305 218 143 245 279 280 71 110 185 236 251 245 251 260 266 271 273 280 279 279 306 326 323 338 316 291 292 292 292 290 286 280 264 250 244 235 227 221 216 213 211 208 205 203 203 203 203 203 204 207 211 213 213 212 210 210 210 210 211 213 214 215 216 217
131 211 194 154 150 209 219 214 156 161 200 228 117 96 82 83 92 111 148 145 78 310 253 198 159 208 279 280 82 79 199 227 248 252 260 271 276 274 275 280 280 297 3 33 357 313 292 300 311 311 310 305 297 288 273 256 246 237 229 222 217 213 210 208 206 204 204 204 204 205 206 208 211 210 210 210 208 208 208 207 208 210 212 213 214 215
243 141 149 158 182 200 171 102 164 172 176 141 101 57 36 32 37 59 57 92 82 279 235 185 181 181 276 284 126 163 226 214 235 278 287 282 274 270 270 272 279 309 9 19 352 297 296 317 330 337 333 320 309 294 277 256 241 234 228 223 220 216 212 209 207 205 205 205 205 207 208 210 210 207 204 204 203 204 205 205 207 208 210 211 213 213
256 167 205 222 183 134 109 82 359 75 126 133 105 68 20 333 10 29 353 53 170 263 240 187 182 180 233 261 142 255 270 240 217 253 279 284 281 274 274 276 279 306 63 34 355 322 325 337 345 354 348 331 318 300 278 253 237 229 224 221 220 218 214 211 208 207 207 206 208 210 211 211 210 207 204 204 203 202 202 204 205 206 208 209 211 212
273 212 215 243 186 150 137 141 344 12 107 127 115 130 238 307 340 339 306 103 212 257 264 188 167 201 243 254 265 268 273 256 228 220 249 262 264 271 293 306 305 329 42 44 351 318 331 336 334 339 337 326 314 298 280 256 238 229 225 220 219 219 217 214 212 210 209 209 211 212 212 212 211 209 209 209 207 206 205 205 204 204 205 206 208 211
283 251 170 145 257 179 151 179 239 259 174 160 154 163 176 207 253 263 255 260 259 266 276 190 163 240 275 274 240 244 257 259 238 230 236 236 244 266 293 306 308 319 337 2 348 325 331 329 322 320 319 320 315 304 286 266 250 235 228 222 220 220 219 218 217 214 213 214 215 214 213 213 212 211 212 212 211 210 209 207 206 206 206 206 209 212
263 288 196 168 238 176 175 204 202 148 158 184 165 145 175 189 193 230 236 247 264 278 298 236 188 221 259 270 230 232 260 289 258 245 253 249 251 275 296 298 303 308 319 343 344 321 311 309 309 308 315 320 320 314 292 273 261 245 235 228 224 222 219 218 219 219 218 218 217 217 216 216 214 214 215 215 215 214 212 211 210 210 210 211 213 214
229 271 240 196 165 163 183 221 170 114 136 217 131 116 221 203 177 237 257 229 220 323 283 233 227 231 239 273 266 253 268 279 268 276 315 301 287 302 298 288 295 300 310 334 338 320 296 283 283 291 309 319 325 323 299 280 268 255 247 237 231 228 223 220 220 221 223 223 221 220 220 220 219 217 217 217 217 216 216 215 213 213 214 215 216 216
251 270 248 93 314 184 180 250 129 143 209 190 127 186 235 176 152 236 283 288 98 266 258 245 259 276 293 287 290 350 309 297 300 304 305 290 296 307 285 276 296 310 317 320 320 313 287 257 253 282 322 336 341 340 323 307 292 275 262 249 240 234 227 223 222 222 225 228 228 226 224 224 223 222 222 221 220 219 218 218 217 217 217 218 218 218
251 273 257 152 226 255 156 69 317 331 132 135 174 221 226 116 133 161 266 329 274 253 257 260 264 276 290 280 324 29 352 337 328 312 306 299 296 280 268 274 295 301 299 296 299 305 307 311 338 5 9 2 354 348 339 332 321 303 281 264 253 245 237 230 226 224 225 229 232 232 229 228 227 227 227 227 226 224 221 220 219 219 219 220 219 219
243 265 281 122 183 288 3 61 302 328 98 139 210 268 94 219 248 140 175 227 239 247 249 244 256 267 261 261 292 324 306 314 322 312 311 300 285 278 291 311 315 308 306 316 327 331 340 356 10 17 12 3 357 352 346 342 333 316 295 280 270 262 255 245 236 230 228 229 231 234 234 233 232 231 231 230 230 229 226 224 223 221 221 221 220 219
33 242 274 44 92 322 357 92 196 287 331 97 316 329 56 186 227 182 179 198 233 251 257 242 247 252 246 261 295 306 266 288 308 310 302 286 276 283 301 317 323 326 334 344 353 356 3 10 14 15 9 2 1 0 359 359 355 347 331 312 294 281 272 264 254 247 241 236 234 235 236 236 236 235 235 234 233 232 231 229 227 226 224 223 222 220
53 211 244 273 332 317 301 190 179 211 229 169 262 272 256 230 252 266 235 179 224 256 261 251 247 244 246 275 295 128 173 283 295 313 311 301 295 289 282 299 329 351 3 5 10 10 12 14 12 12 9 6 8 9 9 9 7 6 359 346 325 302 287 277 269 265 260 254 248 243 241 240 240 240 239 238 236 236 236 234 232 231 229 227 226 222
197 205 223 258 281 272 251 218 195 194 184 183 202 213 226 224 236 275 257 215 211 250 256 258 260 255 260 290 296 298 142 289 295 324 317 309 309 316 335 2 8 15 16 13 16 16 15 14 10 9 9 9 10 9 10 11 11 10 6 0 349 327 309 293 281 274 269 266 261 256 252 248 246 244 242 240 238 238 237 236 235 233 231 231 229 226
167 125 190 238 248 258 257 236 201 184 140 144 210 199 204 191 175 226 248 239 233 246 253 261 262 251 240 270 287 290 281 277 246 243 292 307 330 354 10 18 20 22 19 16 19 18 15 10 9 11 11 11 9 7 7 9 11 12 9 6 1 350 339 323 307 294 283 274 267 263 260 256 252 249 246 243 241 239 239 238 237 235 234 233 231 228
90 116 227 248 250 273 275 257 176 92 72 55 253 220 209 212 211 228 241 248 249 247 251 261 258 242 226 256 274 291 296 301 281 217 304 6 24 29 22 18 19 17 16 17 17 16 13 11 12 13 12 10 8 6 5 6 8 9 9 7 4 360 355 347 336 321 304 290 278 270 265 261 257 253 249 246 243 242 240 239 238 236 235 234 231 229
241 179 186 275 277 284 285 271 247 32 100 226 247 238 231 239 251 265 273 266 255 241 239 254 261 249 257 285 291 300 303 308 324 15 57 56 42 35 23 15 14 11 13 14 11 12 13 13 13 11 8 8 7 6 5 5 6 7 6 5 3 1 357 354 350 340 325 308 293 282 273 267 262 258 254 251 248 246 243 241 239 237 235 233 231 229
251 222 203 246 261 261 269 267 267 256 173 198 250 243 235 231 234 251 267 254 252 240 231 246 266 266 272 289 293 307 324 335 352 20 47 53 37 34 31 19 14 12 12 9 8 9 9 11 12 8 6 6 6 6 6 4 4 4 3 3 2 1 358 356 355 350 341 327 308 292 282 274 268 263 259 257 254 252 248 244 242 239 236 233 231 229
224 259 238 240 249 255 264 272 289 302 271 264 273 257 249 242 229 232 245 247 257 261 251 252 266 272 273 282 313 350 5 5 5 13 26 31 26 23 20 16 17 17 12 9 9 8 7 8 8 6 5 3 2 4 4 4 3 2 0 0 360 359 359 358 357 355 351 343 331 314 299 287 278 272 267 263 260 256 253 249 245 241 238 235 232 229
92 287 260 252 256 261 276 289 302 305 292 283 285 278 274 274 260 248 249 254 261 265 263 264 273 277 279 311 13 16 11 7 8 6 8 15 16 13 14 13 13 12 8 9 10 9 9 5 2 1 0 360 0 1 2 2 1 0 359 357 357 357 357 357 357 357 355 352 346 336 325 311 297 286 277 271 265 260 256 252 248 243 240 236 233 231
124 263 261 271 284 296 304 305 306 304 299 295 292 287 285 282 275 265 262 267 272 269 274 287 288 286 294 12 41 23 7 2 5 359 354 3 9 11 14 13 12 8 4 3 2 2 3 359 357 357 354 356 358 358 359 359 357 357 356 355 354 355 354 355 355 356 356 356 353 348 341 331 317 302 289 279 270 264 258 254 249 245 241 237 234 232
227 267 299 310 313 315 302 295 296 296 295 293 286 284 285 278 271 269 271 276 277 272 275 282 279 280 306 39 32 18 15 338 333 350 359 8 9 8 10 11 9 4 359 358 355 352 353 352 351 351 351 354 355 355 355 355 354 354 352 352 351 351 351 352 353 354 355 356 355 353 350 345 335 321 305 291 279 270 263 257 252 247 242 238 235 233
270 306 337 338 319 301 291 286 286 286 286 290 292 289 280 272 269 272 276 275 271 271 275 275 271 270 55 60 341 329 341 311 330 2 12 14 8 6 7 4 358 354 353 351 346 344 345 345 346 348 350 350 349 350 351 350 350 351 350 350 349 348 348 348 350 351 352 353 352 352 352 351 346 337 323 307 292 281 271 262 255 249 244 240 236 233
295 307 327 323 299 288 289 288 289 294 295 289 283 276 270 268 269 269 270 271 272 277 285 280 271 271 48 17 311 323 335 345 347 339 353 10 4 5 4 355 347 345 343 340 340 341 340 340 342 344 345 345 344 345 345 345 345 347 348 347 345 345 345 345 345 346 346 348 350 351 352 351 349 344 336 323 307 293 280 269 259 251 245 241 237 233
255 267 289 285 278 276 277 284 305 323 307 280 265 259 258 261 266 265 268 309 330 271 276 280 264 123 316 294 330 331 328 343 336 317 314 330 339 357 357 345 336 333 332 333 335 336 335 335 336 335 336 338 338 338 339 341 342 342 343 342 341 342 342 341 341 341 341 344 347 350 351 350 348 345 340 333 322 306 290 276 264 254 248 243 239 234
242 248 249 246 257 269 275 297 343 304 273 269 267 242 232 247 263 262 257 60 51 120 114 112 152 105 297 278 292 295 287 298 300 286 259 236 287 338 340 332 327 325 324 325 325 327 326 323 323 325 328 330 331 332 334 337 338 338 339 339 338 339 339 338 337 337 338 341 344 347 348 348 346 344 340 337 330 316 300 283 270 260 252 246 240 234
242 239 236 226 239 267 290 327 307 267 254 263 316 28 92 113 103 100 102 88 71 98 103 130 203 208 261 269 264 265 260 253 261 265 248 219 215 308 320 315 311 310 309 307 310 312 312 311 315 318 321 324 325 327 330 333 335 336 337 338 337 336 336 335 334 334 336 339 342 344 345 344 343 341 339 337 332 322 307 292 279 268 257 248 241 236
235 230 216 214 237 258 267 223 248 268 314 217 259 7 54 85 93 84 70 200 204 197 163 186 219 214 230 255 258 262 268 265 263 257 234 209 204 234 267 278 279 276 278 283 289 296 299 302 305 306 311 316 318 322 325 329 332 333 333 335 335 334 335 335 334 335 336 338 340 340 340 340 338 337 337 335 332 324 314 302 289 276 264 253 245 239
217 217 207 224 236 233 222 223 243 295 306 272 252 323 82 130 134 92 317 199 194 229 220 198 216 225 225 243 257 261 273 289 298 273 213 198 210 220 230 248 254 252 255 258 268 281 290 295 297 300 306 311 312 316 321 324 328 330 329 329 331 331 332 333 332 333 335 335 335 335 335 335 334 333 333 332 329 324 317 309 298 285 272 258 249 243
207 211 207 230 243 233 251 263 261 277 282 261 238 249 233 196 195 190 261 204 174 253 243 198 211 237 229 235 254 261 280 304 304 293 221 210 225 231 236 243 244 247 249 252 265 280 287 292 296 299 305 308 308 311 317 320 324 326 322 322 325 326 326 326 327 329 331 330 329 329 330 331 330 329 329 327 325 321 316 310 301 291 278 261 251 246
191 210 209 231 257 246 257 274 261 260 269 227 224 240 232 202 189 167 309 249 156 282 251 196 207 241 233 232 242 228 210 275 282 283 240 221 228 240 249 249 244 247 253 260 272 282 287 291 293 296 301 302 301 306 313 316 318 319 315 315 319 320 318 318 321 325 326 324 324 325 325 326 327 326 324 322 320 318 315 310 303 294 280 265 254 248
78 228 212 220 246 251 253 262 257 264 272 221 210 237 243 184 136 89 294 268 155 230 233 194 211 240 231 234 236 203 208 243 255 264 253 235 231 234 243 253 253 250 258 270 280 285 287 289 289 292 294 293 294 301 307 310 313 311 307 309 313 311 309 311 316 320 320 319 319 320 320 322 322 321 320 318 317 316 313 310 304 295 283 270 260 252
349 314 219 209 232 243 248 257 260 262 262 227 207 227 240 147 98 269 267 254 133 279 244 189 210 238 235 237 235 212 224 236 241 257 265 260 255 246 245 252 255 257 265 276 285 288 287 285 287 289 290 289 292 297 301 306 307 302 301 305 305 300 303 309 314 317 317 316 315 314 315 317 318 317 316 314 314 313 310 308 304 295 285 275 265 255
246 288 272 228 226 233 236 251 266 269 257 209 206 232 214 127 248 250 242 249 307 293 268 204 215 238 243 243 242 236 241 244 249 262 267 264 264 263 260 258 257 264 274 282 288 289 286 287 290 290 289 289 292 295 299 303 300 296 297 298 293 294 302 309 313 315 315 312 311 310 311 313 314 313 311 310 310 308 306 305 301 293 284 275 265 255
221 232 265 224 206 250 255 239 251 264 250 140 149 285 242 184 222 253 288 305 289 271 256 241 237 241 248 253 255 253 251 251 254 261 260 257 262 267 267 263 260 269 279 285 287 287 287 289 290 288 287 289 290 292 296 298 295 294 294 291 290 297 305 308 311 313 311 308 307 307 309 309 310 309 307 305 305 302 299 299 295 288 279 268 259 252
229 215 244 238 216 223 229 228 228 229 219 173 160 213 235 229 247 281 299 300 293 273 246 245 254 257 258 260 259 257 256 254 254 258 259 260 269 273 271 270 273 280 286 288 286 288 290 291 288 287 287 287 288 290 292 291 291 291 289 288 293 302 308 309 311 310 306 305 305 305 306 306 305 304 302 300 299 295 291 289 285 278 270 259 250 245
231 204 226 255 258 221 207 242 254 233 221 247 240 247 262 272 283 289 285 282 282 271 248 250 272 278 276 270 261 256 255 254 255 260 265 274 283 283 282 286 286 286 288 288 287 289 292 292 289 287 287 287 287 288 289 288 288 286 285 289 297 306 308 308 308 306 302 301 302 301 302 302 300 298 296 295 292 287 283 280 274 265 259 251 240 236
264 250 229 276 280 268 251 257 264 273 282 276 273 275 275 278 284 290 288 270 256 255 260 267 276 281 283 278 266 256 256 265 275 282 287 294 295 290 291 292 290 289 289 286 287 290 292 292 289 285 285 285 285 286 287 288 285 281 284 291 300 306 307 306 304 301 299 297 297 297 298 298 296 295 293 291 288 282 278 274 266 257 252 244 235 232
259 246 231 248 265 270 265 259 259 264 267 268 273 278 278 277 278 277 272 262 259 266 277 286 293 294 292 290 283 280 285 295 303 301 301 302 295 290 291 292 291 292 289 286 287 291 292 290 286 283 283 284 286 287 289 288 286 283 286 292 300 305 305 304 301 299 296 294 293 293 294 293 292 292 291 289 285 280 275 271 263 254 246 238 231 230
252 219 206 235 247 250 257 263 266 262 260 264 268 270 275 279 279 274 268 275 291 303 308 322 339 337 334 346 352 329 310 304 300 299 301 300 294 291 291 290 290 292 291 290 291 293 292 286 281 281 282 283 286 290 292 289 287 287 289 294 300 303 303 301 298 296 293 291 290 289 289 288 287 288 288 287 283 278 272 268 261 251 245 241 234 229
263 256 208 223 246 255 260 267 273 273 269 266 261 261 271 282 286 295 322 348 359 355 345 343 346 347 345 344 346 333 309 300 299 302 300 296 292 291 291 291 293 293 292 292 294 295 292 287 284 283 284 284 287 292 292 290 289 290 293 297 300 303 302 299 296 293 290 288 287 285 284 283 283 283 283 283 282 277 271 268 262 255 253 250 244 238
246 255 248 240 254 263 265 265 269 274 274 271 271 282 333 352 344 1 14 13 9 2 346 334 328 327 328 328 331 325 306 297 299 302 299 292 289 289 291 294 295 293 292 293 295 295 292 289 288 287 286 287 290 293 293 292 292 293 295 298 300 301 300 297 294 291 287 286 285 283 283 283 282 281 281 281 281 280 276 273 267 259 256 255 252 248
233 243 249 247 251 262 268 269 269 268 266 274 299 32 56 32 24 32 20 354 345 343 341 334 325 321 319 317 320 314 296 292 297 299 296 290 288 289 292 294 293 291 292 294 295 294 293 293 293 291 289 290 293 294 293 293 293 294 296 298 299 298 295 291 288 286 284 284 284 283 285 285 283 282 281 278 278 279 279 278 274 265 257 254 253 251